Date String (YYYY-MM-DD hh:mm:ss) UTC,Instrument flags,absolute air pressure of the measurement (hPa),sample flow rate (lpm),inlet stack bypass flow (lpm),air temperature of the measurement (°C),ambient temperature measured by the external sensor (°C),aerosol sample conditioner tube jacket temperature (°C),OPC LED temperature (°C),internal box temperature (°C),relative humidity of the measurement (%),span deviation,mass concentration of particles derived from Lorenz-Mie calculation of OPC scattering (μg/m³),mass concentration of particles derived from Lorenz-Mie calculation of OPC scattering (μg/m³),mass concentration of particles derived from Lorenz-Mie calculation of OPC scattering (μg/m³)
DateTimeUTC,F1_M11,P_M11,Q1_M11,Q2_M11,T1_M11,T2_M11,T3_M11,T4_M11,T5_M11,U1_M11,ZSPAN_M11,X0_M11,X2_M11,X1_M11
2023-10-01 03:00:00,SystemResetWarning,0826.7,5.01,000.00,028.0,026.7,000.0,036.5,029.9,18.8,0000.0,0008.67,0003.79,0003.18
2023-10-01 03:01:00,SystemResetWarning,0826.7,5.02,000.00,028.1,026.8,000.0,036.5,029.9,18.7,0000.0,0007.92,0003.81,0003.19
2023-10-01 03:02:00,SystemResetWarning,0826.8,5.00,000.00,028.1,026.9,000.0,036.5,029.9,18.6,0000.0,0007.99,0003.81,0003.19
2023-10-01 03:03:00,SystemResetWarning,0826.8,4.99,000.00,028.1,027.0,000.0,036.5,030.0,18.5,0000.0,0008.21,0003.79,0003.19
2023-10-01 03:04:00,SystemResetWarning,0826.8,5.00,000.00,028.2,027.0,000.0,036.5,030.0,18.4,0000.0,0007.87,0003.80,0003.19
2023-10-01 03:05:00,SystemResetWarning,0826.8,5.00,000.00,028.2,027.1,000.0,036.6,030.0,18.4,0000.0,0007.81,0003.84,0003.20
2023-10-01 03:06:00,SystemResetWarning,0826.7,4.99,000.00,028.2,027.2,000.0,036.6,030.1,18.4,0000.0,0008.30,0003.89,0003.22
2023-10-01 03:07:00,SystemResetWarning,0826.7,5.00,000.00,028.3,026.5,000.0,036.6,030.0,18.3,0000.0,0008.72,0003.94,0003.23
2023-10-01 03:08:00,SystemResetWarning,0826.8,5.00,000.00,028.2,024.7,000.0,036.5,029.8,18.4,0000.0,0008.60,0003.92,0003.22
2023-10-01 03:09:00,SystemResetWarning,0826.7,5.00,000.00,028.1,024.3,000.0,036.5,029.7,18.4,0000.0,0008.61,0003.90,0003.21
2023-10-01 03:10:00,SystemResetWarning,0826.7,5.01,000.00,028.0,024.5,000.0,036.5,029.5,18.5,0000.0,0008.65,0003.89,0003.20
2023-10-01 03:11:00,SystemResetWarning,0826.7,5.00,000.00,028.0,024.8,000.0,036.5,029.5,18.5,0000.0,0008.83,0003.88,0003.20
2023-10-01 03:12:00,SystemResetWarning,0826.8,5.00,000.00,027.9,025.2,000.0,036.5,029.5,18.5,0000.0,0009.14,0003.84,0003.19
2023-10-01 03:13:00,SystemResetWarning,0826.8,5.00,000.00,027.9,025.5,000.0,036.5,029.6,18.6,0000.0,0009.35,0003.85,0003.19
2023-10-01 03:14:00,SystemResetWarning,0826.8,5.01,000.00,027.9,025.8,000.0,036.5,029.6,18.6,0000.0,0009.58,0003.86,0003.19
2023-10-01 03:15:00,SystemResetWarning,0826.8,5.00,000.00,027.9,026.0,000.0,036.5,029.7,18.6,0000.0,0009.52,0003.85,0003.19
2023-10-01 03:16:00,SystemResetWarning,0826.8,5.00,000.00,027.9,026.3,000.0,036.5,029.7,18.5,0000.0,0009.47,0003.83,0003.19
2023-10-01 03:17:00,SystemResetWarning,0826.8,5.00,000.00,028.0,026.4,000.0,036.5,029.8,18.5,0000.0,0009.21,0003.82,0003.19
2023-10-01 03:18:00,SystemResetWarning,0826.8,5.00,000.00,028.0,026.6,000.0,036.5,029.8,18.4,0000.0,0008.86,0003.78,0003.19
2023-10-01 03:19:00,SystemResetWarning,0826.8,5.00,000.00,028.0,026.7,000.0,036.5,029.8,18.3,0000.0,0009.57,0003.80,0003.19
2023-10-01 03:20:00,SystemResetWarning,0826.8,5.00,000.00,028.1,026.8,000.0,036.5,029.9,18.3,0000.0,0010.67,0003.80,0003.18
2023-10-01 03:21:00,SystemResetWarning,0826.8,5.00,000.00,028.1,026.9,000.0,036.5,029.9,18.2,0000.0,0010.97,0003.76,0003.18
2023-10-01 03:22:00,SystemResetWarning,0826.8,5.01,000.00,028.1,026.9,000.0,036.5,029.9,18.2,0000.0,0011.09,0003.74,0003.15
2023-10-01 03:23:00,SystemResetWarning,0826.9,5.00,000.00,028.2,027.0,000.0,036.5,030.0,18.0,0000.0,0010.58,0003.77,0003.14
2023-10-01 03:24:00,SystemResetWarning,0826.9,5.00,000.00,028.2,027.1,000.0,036.5,030.0,18.0,0000.0,0011.23,0003.76,0003.14
2023-10-01 03:25:00,SystemResetWarning,0826.9,5.00,000.00,028.2,027.1,000.0,036.6,030.1,18.0,0000.0,0010.57,0003.77,0003.14
2023-10-01 03:26:00,SystemResetWarning,0826.9,5.00,000.00,028.2,027.2,000.0,036.6,030.1,18.0,0000.0,0010.69,0003.74,0003.12
2023-10-01 03:27:00,SystemResetWarning,0827.0,5.00,000.00,028.3,027.2,000.0,036.6,030.1,17.9,0000.0,0010.75,0003.72,0003.10
2023-10-01 03:28:00,SystemResetWarning,0827.0,4.99,000.00,028.3,027.0,000.0,036.6,030.1,17.8,0000.0,0010.73,0003.69,0003.08
2023-10-01 03:29:00,SystemResetWarning,0826.9,5.00,000.00,028.3,025.3,000.0,036.6,029.9,17.7,0000.0,0010.67,0003.72,0003.06
2023-10-01 03:30:00,SystemResetWarning,0826.9,5.01,000.00,028.2,024.4,000.0,036.5,029.8,17.7,0000.0,0010.06,0003.72,0003.04
2023-10-01 03:31:00,SystemResetWarning,0826.9,5.01,000.00,028.1,024.4,000.0,036.5,029.6,17.7,0000.0,0009.16,0003.72,0003.06
2023-10-01 03:32:00,SystemResetWarning,0826.9,5.00,000.00,028.0,024.7,000.0,036.5,029.6,17.9,0000.0,0008.86,0003.73,0003.08
2023-10-01 03:33:00,SystemResetWarning,0827.0,5.00,000.00,028.0,025.1,000.0,036.5,029.6,17.9,0000.0,0008.56,0003.73,0003.10
2023-10-01 03:34:00,SystemResetWarning,0827.0,5.00,000.00,027.9,025.4,000.0,036.5,029.6,18.1,0000.0,0008.45,0003.70,0003.11
2023-10-01 03:35:00,SystemResetWarning,0827.0,4.99,000.00,027.9,025.7,000.0,036.5,029.7,18.2,0000.0,0007.75,0003.70,0003.11
2023-10-01 03:36:00,SystemResetWarning,0827.0,5.00,000.00,028.0,026.0,000.0,036.5,029.7,18.3,0000.0,0008.14,0003.68,0003.11
2023-10-01 03:37:00,SystemResetWarning,0826.9,5.00,000.00,028.0,026.2,000.0,036.5,029.7,18.2,0000.0,0008.79,0003.71,0003.14
2023-10-01 03:38:00,SystemResetWarning,0826.9,5.00,000.00,028.0,026.4,000.0,036.5,029.8,18.0,0000.0,0008.76,0003.72,0003.15
2023-10-01 03:39:00,SystemResetWarning,0826.9,5.00,000.00,028.0,026.5,000.0,036.5,029.8,17.9,0000.0,0008.75,0003.73,0003.15
2023-10-01 03:40:00,SystemResetWarning,0826.9,5.00,000.00,028.0,026.7,000.0,036.5,029.8,17.8,0000.0,0008.57,0003.69,0003.15
2023-10-01 03:41:00,SystemResetWarning,0826.9,5.00,000.00,028.1,026.8,000.0,036.5,029.9,17.7,0000.0,0008.68,0003.64,0003.15
2023-10-01 03:42:00,SystemResetWarning,0826.9,5.00,000.00,028.1,026.9,000.0,036.5,029.9,17.6,0000.0,0008.84,0003.65,0003.15
2023-10-01 03:43:00,SystemResetWarning,0826.8,5.00,000.00,028.1,026.9,000.0,036.5,029.9,17.5,0000.0,0008.69,0003.65,0003.15
2023-10-01 03:44:00,SystemResetWarning,0826.8,5.00,000.00,028.2,027.0,000.0,036.5,030.0,17.6,0000.0,0008.96,0003.64,0003.15
2023-10-01 03:45:00,SystemResetWarning,0826.8,4.99,000.00,028.2,027.0,000.0,036.6,030.0,17.5,0000.0,0009.82,0003.66,0003.15
2023-10-01 03:46:00,SystemResetWarning,0826.8,5.00,000.00,028.2,027.1,000.0,036.6,030.0,17.4,0000.0,0011.04,0003.69,0003.15
2023-10-01 03:47:00,SystemResetWarning,0826.8,4.99,000.00,028.2,027.1,000.0,036.6,030.0,17.4,0000.0,0010.91,0003.68,0003.16
2023-10-01 03:48:00,SystemResetWarning,0826.8,5.00,000.00,028.3,027.2,000.0,036.6,030.1,17.5,0000.0,0010.07,0003.68,0003.15
2023-10-01 03:49:00,SystemResetWarning,0826.8,5.00,000.00,028.3,027.2,000.0,036.6,030.1,17.5,0000.0,0010.10,0003.70,0003.15
2023-10-01 03:50:00,SystemResetWarning,0826.8,5.00,000.00,028.3,027.2,000.0,036.7,030.1,17.6,0000.0,0010.42,0003.71,0003.14
2023-10-01 03:51:00,SystemResetWarning,0826.8,5.00,000.00,028.3,026.9,000.0,036.7,030.1,17.5,0000.0,0010.67,0003.75,0003.15
2023-10-01 03:52:00,SystemResetWarning,0826.7,4.99,000.00,028.3,025.1,000.0,036.6,030.0,17.5,0000.0,0010.85,0003.78,0003.15
2023-10-01 03:53:00,SystemResetWarning,0826.7,5.01,000.00,028.2,024.3,000.0,036.6,029.8,17.5,0000.0,0010.63,0003.78,0003.15
2023-10-01 03:54:00,SystemResetWarning,0826.7,5.01,000.00,028.2,024.4,000.0,036.6,029.7,17.7,0000.0,0010.62,0003.75,0003.14
2023-10-01 03:55:00,SystemResetWarning,0826.6,5.00,000.00,028.1,024.7,000.0,036.6,029.6,17.8,0000.0,0010.68,0003.77,0003.14
2023-10-01 03:56:00,SystemResetWarning,0826.6,4.99,000.00,028.0,025.1,000.0,036.6,029.6,17.7,0000.0,0010.29,0003.79,0003.15
2023-10-01 03:57:00,SystemResetWarning,0826.6,5.01,000.00,028.0,025.4,000.0,036.6,029.6,17.7,0000.0,0008.86,0003.74,0003.16
2023-10-01 03:58:00,SystemResetWarning,0826.6,5.00,000.00,028.0,025.7,000.0,036.6,029.7,17.7,0000.0,0008.62,0003.75,0003.16
2023-10-01 03:59:00,SystemResetWarning,0826.6,4.99,000.00,028.0,026.0,000.0,036.6,029.7,17.6,0000.0,0008.53,0003.77,0003.17
